Regional Weather Roundup
Issued by NWS

Home | Current Version | Previous Version | Text Only | Print | Product List | Glossary Off
Versions: 1 2 3 4 5 6 7 8 9 10 11 12 13 14 15 16 17 18 19 20 21 22 23 24 25 26 27 28

000
ASUS45 KGTF 241610
RWRMT
MONTANA HOURLY WEATHER ROUNDUP
NATIONAL WEATHER SERVICE GREAT FALLS MT
1000 AM MDT FRI APR 24 2015

NOTE: "FAIR" INDICATES FEW OR NO CLOUDS BELOW 12000 FEET WITH NO
SIGNIFICANT WEATHER AND/OR OBSTRUCTIONS TO VISIBILITY.

MTZ001>007-043-241700-
WEST OF THE DIVIDE

CITY           SKY/WX    TMP DP  RH WIND       PRES   REMARKS
KALISPELL      CLOUDY    49  38  65 S12       29.71S
MISSOULA       CLOUDY    48  34  58 NW6       29.73S
BUTTE          CLOUDY    40  31  70 CALM      29.70R
DEER LODGE       N/A     39  36  87 N8        29.75R
EUREKA           N/A     48  32  53 SE8       29.69F
HAMILTON         N/A     48  37  66 E1        29.71F
LIBBY            N/A     46  36  66 S5        29.72R
$$

MTZ008-052>055-241700-
SOUTHWEST MONTANA

CITY           SKY/WX    TMP DP  RH WIND       PRES   REMARKS
BOZEMAN        CLOUDY    49  35  58 CALM      29.65S
DILLON         CLOUDY    50  29  44 N6        29.63F
$$

MTZ009-010-012-014-046-048-049-054-241700-
EAST SLOPES AND CENTRAL MONTANA

CITY           SKY/WX    TMP DP  RH WIND       PRES   REMARKS
CUT BANK       CLOUDY    46  31  55 W16       29.66R
GREAT FALLS    LGT RAIN  47  35  63 SE7       29.66R
MALMSTROM AFB  LGT RAIN  49  32  52 SW7G22    29.67R
HELENA         CLOUDY    48  37  65 NW10      29.67R
$$

MTZ011-013-016-021-045-047-050-051-241700-
NORTH CENTRAL MONTANA

CITY           SKY/WX    TMP DP  RH WIND       PRES   REMARKS
HAVRE          CLOUDY    53  34  48 W7        29.63R
LEWISTOWN      CLOUDY    50  32  50 NW7       29.64R
CHINOOK          N/A     54  36  50 W8        29.63R
FORT BENTON      N/A     52  36  54 CALM      29.67R
$$

MTZ017>020-022>042-056>058-061-062-241700-
EASTERN PLAINS

CITY           SKY/WX    TMP DP  RH WIND       PRES   REMARKS
BAKER          SUNNY     61  34  36 E8        29.64S
BILLINGS       PTSUNNY   56  42  59 W5        29.62R
GLASGOW        MOSUNNY   50  34  54 SE13      29.61R
JORDAN           N/A     58  39  49 SW7       29.60S
LIVINGSTON     PTSUNNY   52  36  54 N5        29.62F
MILES CITY     MOSUNNY   58  35  42 VRB7      29.61F
SIDNEY         MOSUNNY   52  28  40 CALM      29.65S
WOLF POINT     PTSUNNY   49  34  56 E7        29.64F
FORSYTH          N/A     61  45  55 N3        29.60S
PLENTYWOOD       N/A     45  27  49 SE5       29.66R
POPLAR           N/A     50  32  50 E7        29.64F
$$

REGIONAL REPORTS...DAKOTAS

CITY           SKY/WX    TMP DP  RH WIND       PRES   REMARKS
WILLISTON      SUNNY     49  27  42 SE9       29.67S
MINOT          SUNNY     45  31  58 SE9       29.71S
DICKINSON      SUNNY     49  29  46 CALM      29.63S
BEACH          FAIR      57  32  38 SE8       29.64S
CROSBY         FAIR      50  27  40 E7        29.67F
WATFORD CITY   FAIR      46  27  46 CALM      29.66R
BISMARCK       SUNNY     50  33  52 NE3       29.66F
GRAND FORKS    CLOUDY    46  35  65 SE16      29.78F
FARGO          CLOUDY    49  39  68 SE25G33   29.73S
BUFFALO SD       N/A     60  36  40 NE10      29.57S
RAPID CITY     MOSUNNY   60  42  51 N15       29.62S
$$

REGIONAL REPORTS...WYOMING/IDAHO/WASHINGTON

CITY           SKY/WX    TMP DP  RH WIND       PRES   REMARKS
GILLETTE       CLOUDY    55  42  61 VRB3      29.65S
SHERIDAN       SUNNY     57  42  57 CALM      29.62F
BUFFALO WY     SUNNY     60  35  39 VRB3      29.65S
CODY           MOSUNNY   57  27  30 W13G23    29.65S
YELLOWSTONE LA   N/A     36  25  64 E3        29.78F
IDAHO FALLS    PTSUNNY   54  36  50 SW13      29.70S
SALMON         CLOUDY    48  39  71 NW7       29.67S
BOISE          CLOUDY    46  40  79 NE7       29.75F
SPOKANE        PTSUNNY   42  30  62 SW18      29.76R
$$

REGIONAL REPORTS...ALBERTA

CITY           SKY/WX    TMP DP  RH WIND       PRES   REMARKS
EDMONTON       CLOUDY    39  36  87 E6        29.71S
CALGARY        CLOUDY    43  30  61 N10       29.64S
LETHBRIDGE     PTSUNNY   41  32  70 NW14      29.65R
MEDICINE HAT   PTSUNNY   50  32  50 SW15      29.60S
$$

REGIONAL REPORTS...SASKATCHEWAN

CITY           SKY/WX    TMP DP  RH WIND       PRES   REMARKS
SWIFT CURRENT  CLOUDY    46  39  76 E12       29.61S
REGINA         PTSUNNY   46  30  53 SE9       29.68F
SASKATOON      MOSUNNY   45  36  70 NE9       29.70R
$$



USA.gov is the U.S. government's official web portal to all federal, state and local government web resources and services.